Location: Mission Viejo Division
(33.5624°N, 117.5924°W)
Time: 08:12:56
(UTC+00:00)

Cosmos 1455 Rocket - Pass Details

Date: 22 May 2024
Orbit: 602 x 625 km, 82.5° (Epoch: 23 June)

Event Time Altitude Azimuth Distance (km) Brightness Sun altitude
Rises 12:08:47 0° 350° (N) 2,878 6.8 -7.5°
Reaches altitude 10° 12:11:00 10° 349° (NNW) 1,974 5.9 -7.1°
Maximum altitude 12:15:21 71° 266° (W) 652 3.0 -6.3°
Drops below altitude 10° 12:19:42 10° 182° (S) 1,974 5.4 -5.5°
Sets 12:21:55 0° 180° (S) 2,879 6.2 -5.1°
